Location: Waco, TX
(31.5480°N, 97.1670°W)
Time: 00:52:34
(UTC-06:00)

ISS - Pass Details

Date: 22 January 2018
Orbit: 402 x 407 km, 51.6° (Epoch: 21 January)

Event Time Altitude Azimuth Distance (km) Brightness Sun altitude
Rises 19:49:41 0° 230° (SW) 2,299 0.9 -24.4°
Reaches altitude 10° 19:51:46 10° 234° (SW) 1,444 -0.2 -24.9°
Enters shadow 19:53:30 28° 243° (WSW) 774 -1.9 -25.2°
Maximum altitude 19:54:58 63° 316° (NW) 449 - -25.5°
Drops below altitude 10° 19:58:12 10° 39° (NE) 1,451 - -26.2°
Sets 20:00:18 0° 42° (NE) 2,313 - -26.7°
